Time,TemperatureF,DewpointF,PressureIn,WindDirection,WindDirectionDegrees,WindSpeedMPH,WindSpeedGustMPH,Humidity,HourlyPrecipIn,Conditions,Clouds,dailyrainin,SolarRadiationWatts/m^2,SoftwareType,DateUTC
2013-04-30 00:02:00,66.9,60.5,29.67,SSE,152,9.2,9.2,80,0.00,CLR,,0.00,0.0,WeatherDisplay:10.37,2013-04-30 05:02:00,
2013-04-30 00:07:00,66.8,60.4,29.67,SE,138,11.5,11.5,80,0.00,CLR,,0.00,0.0,WeatherDisplay:10.37,2013-04-30 05:07:00,
2013-04-30 00:12:00,66.7,60.3,29.67,SE,143,5.8,5.8,80,0.00,CLR,,0.00,0.0,WeatherDisplay:10.37,2013-04-30 05:12:00,
2013-04-30 00:17:00,66.5,60.1,29.67,SSE,155,13.8,13.8,80,0.00,CLR,,0.00,0.0,WeatherDisplay:10.37,2013-04-30 05:17:00,
2013-04-30 00:22:00,66.4,60.4,29.67,SSE,159,5.8,5.8,81,0.00,CLR,,0.00,0.0,WeatherDisplay:10.37,2013-04-30 05:22:00,
2013-04-30 00:27:00,66.2,60.2,29.67,SE,142,10.4,10.4,81,0.00,CLR,,0.00,0.0,WeatherDisplay:10.37,2013-04-30 05:27:00,
2013-04-30 00:32:00,66.1,60.1,29.67,SE,144,11.5,11.5,81,0.00,CLR,,0.00,0.0,WeatherDisplay:10.37,2013-04-30 05:32:00,
2013-04-30 00:37:00,65.9,60.2,29.67,SE,145,12.7,12.7,82,0.00,CLR,,0.00,0.0,WeatherDisplay:10.37,2013-04-30 05:37:00,
2013-04-30 00:42:00,65.8,60.2,29.67,SE,129,10.4,10.4,82,0.00,CLR,,0.00,0.0,WeatherDisplay:10.37,2013-04-30 05:42:00,
2013-04-30 00:47:00,65.7,60.1,29.66,SSE,150,5.8,6.3,82,0.00,CLR,,0.00,0.0,WeatherDisplay:10.37,2013-04-30 05:47:00,
2013-04-30 00:52:00,65.6,60.0,29.66,SSE,147,2.3,2.3,82,0.00,CLR,,0.00,0.0,WeatherDisplay:10.37,2013-04-30 05:52:00,
2013-04-30 00:57:00,65.6,60.0,29.66,SE,140,5.8,5.8,82,0.00,CLR,,0.00,0.0,WeatherDisplay:10.37,2013-04-30 05:57:00,
2013-04-30 01:02:00,65.5,59.9,29.66,SE,144,9.2,9.2,82,0.00,CLR,,0.00,0.0,WeatherDisplay:10.37,2013-04-30 06:02:00,
2013-04-30 01:07:00,65.4,59.8,29.66,SE,144,10.4,10.4,82,0.00,CLR,,0.00,0.0,WeatherDisplay:10.37,2013-04-30 06:07:00,
2013-04-30 01:12:00,65.3,59.7,29.66,SE,140,9.2,9.2,82,0.00,CLR,,0.00,0.0,WeatherDisplay:10.37,2013-04-30 06:12:00,
2013-04-30 01:17:00,65.2,59.9,29.66,SE,144,6.9,6.9,83,0.00,CLR,,0.00,0.0,WeatherDisplay:10.37,2013-04-30 06:17:00,
2013-04-30 01:22:00,65.1,59.8,29.66,SE,142,10.4,10.4,83,0.00,CLR,,0.00,0.0,WeatherDisplay:10.37,2013-04-30 06:22:00,
2013-04-30 01:27:00,65.0,59.7,29.66,SE,134,12.7,12.7,83,0.00,CLR,,0.00,0.0,WeatherDisplay:10.37,2013-04-30 06:27:00,
2013-04-30 01:32:00,64.9,59.6,29.66,SSE,155,10.4,10.4,83,0.00,CLR,,0.00,0.0,WeatherDisplay:10.37,2013-04-30 06:32:00,
2013-04-30 01:37:00,64.8,59.5,29.65,SE,144,6.9,6.9,83,0.00,CLR,,0.00,0.0,WeatherDisplay:10.37,2013-04-30 06:37:00,
2013-04-30 01:42:00,64.7,59.8,29.66,SE,138,5.8,6.2,84,0.00,CLR,,0.00,0.0,WeatherDisplay:10.37,2013-04-30 06:42:00,
2013-04-30 01:47:00,64.7,59.8,29.66,SSE,152,11.5,11.5,84,0.00,CLR,,0.00,0.0,WeatherDisplay:10.37,2013-04-30 06:47:00,
2013-04-30 01:52:00,64.7,59.8,29.66,SSE,150,11.5,11.5,84,0.00,CLR,,0.00,0.0,WeatherDisplay:10.37,2013-04-30 06:52:00,
2013-04-30 01:57:00,64.7,59.8,29.66,SSE,157,9.2,9.2,84,0.00,CLR,,0.00,0.0,WeatherDisplay:10.37,2013-04-30 06:57:00,
2013-04-30 02:02:00,64.6,59.7,29.66,SSE,151,6.0,6.0,84,0.00,CLR,,0.00,0.0,WeatherDisplay:10.37,2013-04-30 07:02:00,
2013-04-30 02:07:00,64.6,59.7,29.66,SE,139,6.9,6.9,84,0.00,CLR,,0.00,0.0,WeatherDisplay:10.37,2013-04-30 07:07:00,
2013-04-30 02:12:00,64.6,59.7,29.66,SSE,153,6.9,6.9,84,0.00,CLR,,0.00,0.0,WeatherDisplay:10.37,2013-04-30 07:12:00,
2013-04-30 02:17:00,64.5,59.6,29.66,SSE,153,0.0,0.0,84,0.00,CLR,,0.00,0.0,WeatherDisplay:10.37,2013-04-30 07:17:00,
2013-04-30 02:23:00,64.4,59.5,29.65,SSE,159,6.9,6.9,84,0.00,CLR,,0.00,0.0,WeatherDisplay:10.37,2013-04-30 07:23:00,
2013-04-30 02:27:00,64.5,59.9,29.65,SE,140,5.8,5.8,85,0.00,CLR,,0.00,0.0,WeatherDisplay:10.37,2013-04-30 07:27:00,
2013-04-30 02:33:00,64.5,59.9,29.65,SSE,155,11.5,11.5,85,0.00,CLR,,0.00,0.0,WeatherDisplay:10.37,2013-04-30 07:33:00,
2013-04-30 02:38:00,64.6,60.0,29.66,SE,145,5.8,5.8,85,0.00,CLR,,0.00,0.0,WeatherDisplay:10.37,2013-04-30 07:38:00,
2013-04-30 02:43:00,64.6,60.0,29.65,SE,141,4.6,4.6,85,0.00,CLR,,0.00,0.0,WeatherDisplay:10.37,2013-04-30 07:43:00,
2013-04-30 02:48:00,64.6,60.0,29.66,SSE,161,10.4,10.4,85,0.00,CLR,,0.00,0.0,WeatherDisplay:10.37,2013-04-30 07:48:00,
2013-04-30 02:53:00,64.7,60.1,29.66,SE,145,3.5,3.5,85,0.00,CLR,,0.00,0.0,WeatherDisplay:10.37,2013-04-30 07:53:00,
2013-04-30 02:58:00,64.7,60.1,29.67,SE,141,5.8,5.8,85,0.00,CLR,,0.00,0.0,WeatherDisplay:10.37,2013-04-30 07:58:00,
2013-04-30 03:03:00,64.6,60.0,29.66,SE,142,3.5,3.5,85,0.00,CLR,,0.00,0.0,WeatherDisplay:10.37,2013-04-30 08:03:00,
2013-04-30 03:08:00,64.6,60.0,29.67,SE,146,4.6,4.6,85,0.00,CLR,,0.00,0.0,WeatherDisplay:10.37,2013-04-30 08:08:00,
2013-04-30 03:13:00,64.5,59.9,29.67,SE,146,0.0,0.0,85,0.00,CLR,,0.00,0.0,WeatherDisplay:10.37,2013-04-30 08:13:00,
2013-04-30 03:18:00,64.5,59.9,29.67,SE,146,3.5,3.5,85,0.00,CLR,,0.00,0.0,WeatherDisplay:10.37,2013-04-30 08:18:00,
2013-04-30 03:23:00,64.4,59.8,29.67,SE,146,6.9,6.9,85,0.00,CLR,,0.00,0.0,WeatherDisplay:10.37,2013-04-30 08:23:00,
2013-04-30 03:28:00,64.3,59.7,29.67,SSE,157,5.8,5.8,85,0.00,CLR,,0.00,0.0,WeatherDisplay:10.37,2013-04-30 08:28:00,
2013-04-30 03:33:00,64.3,59.7,29.67,SSE,159,0.0,0.0,85,0.00,CLR,,0.00,0.0,WeatherDisplay:10.37,2013-04-30 08:33:00,
2013-04-30 03:38:00,64.3,60.0,29.67,South,188,10.4,10.4,86,0.00,CLR,,0.00,0.0,WeatherDisplay:10.37,2013-04-30 08:38:00,
2013-04-30 21:11:00,74.9,56.6,29.81,SSE,164,10.4,0.0,53,0.00,CLR,,0.00,0.0,WeatherDisplay:10.37,2013-05-01 02:11:00,
2013-04-30 21:16:00,74.5,56.8,29.81,SE,144,6.9,6.9,54,0.00,CLR,,0.00,0.0,WeatherDisplay:10.37,2013-05-01 02:16:00,
2013-04-30 21:21:00,74.1,56.4,29.81,SE,137,5.8,5.8,54,0.00,CLR,,0.00,0.0,WeatherDisplay:10.37,2013-05-01 02:21:00,
2013-04-30 21:26:00,73.8,56.6,29.81,SSE,148,3.5,3.5,55,0.00,CLR,,0.00,0.0,WeatherDisplay:10.37,2013-05-01 02:26:00,
2013-04-30 21:31:00,73.6,56.4,29.81,SSE,150,3.5,4.5,55,0.00,CLR,,0.00,0.0,WeatherDisplay:10.37,2013-05-01 02:31:00,
2013-04-30 21:36:00,73.4,56.7,29.82,SSE,156,5.8,5.8,56,0.00,CLR,,0.00,0.0,WeatherDisplay:10.37,2013-05-01 02:36:00,
2013-04-30 21:41:00,73.3,56.7,29.82,SE,138,5.8,5.8,56,0.00,CLR,,0.00,0.0,WeatherDisplay:10.37,2013-05-01 02:41:00,
2013-04-30 21:46:00,73.2,57.1,29.82,SE,136,5.8,5.8,57,0.00,CLR,,0.00,0.0,WeatherDisplay:10.37,2013-05-01 02:46:00,
2013-04-30 21:51:00,73.1,57.4,29.82,SE,130,8.1,8.1,58,0.00,CLR,,0.00,0.0,WeatherDisplay:10.37,2013-05-01 02:51:00,
2013-04-30 21:56:00,73.0,57.8,29.82,SSE,156,10.4,10.4,59,0.00,CLR,,0.00,0.0,WeatherDisplay:10.37,2013-05-01 02:56:00,
2013-04-30 22:02:00,72.8,58.1,29.82,SE,136,5.8,5.8,60,0.00,CLR,,0.00,0.0,WeatherDisplay:10.37,2013-05-01 03:02:00,
2013-04-30 22:07:00,72.6,58.4,29.82,SSE,158,11.5,11.5,61,0.00,CLR,,0.00,0.0,WeatherDisplay:10.37,2013-05-01 03:07:00,
2013-04-30 22:12:00,72.4,58.6,29.82,SSE,159,5.8,5.8,62,0.00,CLR,,0.00,0.0,WeatherDisplay:10.37,2013-05-01 03:12:00,
2013-04-30 22:17:00,72.2,58.9,29.82,SE,136,4.6,4.6,63,0.00,CLR,,0.00,0.0,WeatherDisplay:10.37,2013-05-01 03:17:00,
2013-04-30 22:22:00,72.1,59.2,29.83,SSE,167,6.9,6.9,64,0.00,CLR,,0.00,0.0,WeatherDisplay:10.37,2013-05-01 03:22:00,
2013-04-30 22:27:00,71.9,59.5,29.83,South,173,5.8,5.8,65,0.00,CLR,,0.00,0.0,WeatherDisplay:10.37,2013-05-01 03:27:00,
2013-04-30 22:32:00,71.7,59.3,29.83,South,176,9.2,9.2,65,0.00,CLR,,0.00,0.0,WeatherDisplay:10.37,2013-05-01 03:32:00,
2013-04-30 22:37:00,71.5,59.1,29.83,South,171,5.8,5.8,65,0.00,CLR,,0.00,0.0,WeatherDisplay:10.37,2013-05-01 03:37:00,
2013-04-30 22:42:00,71.3,58.9,29.84,South,176,6.9,6.9,65,0.00,CLR,,0.00,0.0,WeatherDisplay:10.37,2013-05-01 03:42:00,
2013-04-30 22:47:00,71.3,58.9,29.84,SSE,159,6.9,6.9,65,0.00,CLR,,0.00,0.0,WeatherDisplay:10.37,2013-05-01 03:47:00,
2013-04-30 22:52:00,71.3,58.9,29.84,SSE,163,7.0,7.0,65,0.00,CLR,,0.00,0.0,WeatherDisplay:10.37,2013-05-01 03:52:00,
2013-04-30 22:57:00,71.2,58.4,29.83,SE,141,13.8,13.8,64,0.00,CLR,,0.00,0.0,WeatherDisplay:10.37,2013-05-01 03:57:00,
2013-04-30 23:01:00,71.1,58.3,29.83,South,175,8.1,8.1,64,0.00,CLR,,0.00,0.0,WeatherDisplay:10.37,2013-05-01 04:01:00,
2013-04-30 23:06:00,71.0,58.2,29.84,SSE,157,16.1,16.1,64,0.00,CLR,,0.00,0.0,WeatherDisplay:10.37,2013-05-01 04:06:00,
2013-04-30 23:11:00,70.9,58.1,29.84,South,179,10.4,10.4,64,0.00,CLR,,0.00,0.0,WeatherDisplay:10.37,2013-05-01 04:11:00,
2013-04-30 23:16:00,70.7,57.9,29.84,SSE,153,11.5,11.5,64,0.00,CLR,,0.00,0.0,WeatherDisplay:10.37,2013-05-01 04:16:00,
2013-04-30 23:21:00,70.6,57.8,29.84,SSE,163,9.2,9.2,64,0.00,CLR,,0.00,0.0,WeatherDisplay:10.37,2013-05-01 04:21:00,
2013-04-30 23:26:00,70.5,57.3,29.85,South,175,9.2,9.2,63,0.00,CLR,,0.00,0.0,WeatherDisplay:10.37,2013-05-01 04:26:00,
2013-04-30 23:31:00,70.4,57.2,29.85,SSE,167,5.8,5.8,63,0.00,CLR,,0.00,0.0,WeatherDisplay:10.37,2013-05-01 04:31:00,
2013-04-30 23:36:00,70.3,57.1,29.85,SSE,163,10.4,10.4,63,0.00,CLR,,0.00,0.0,WeatherDisplay:10.37,2013-05-01 04:36:00,
2013-04-30 23:41:00,70.1,56.9,29.85,South,171,9.2,9.2,63,0.00,CLR,,0.00,0.0,WeatherDisplay:10.37,2013-05-01 04:41:00,
2013-04-30 23:46:00,69.9,57.2,29.85,South,178,9.2,9.2,64,0.00,CLR,,0.00,0.0,WeatherDisplay:10.37,2013-05-01 04:46:00,
2013-04-30 23:51:00,69.7,57.0,29.85,South,172,9.2,9.2,64,0.00,CLR,,0.00,0.0,WeatherDisplay:10.37,2013-05-01 04:51:00,
2013-04-30 23:56:00,69.5,56.8,29.85,SE,133,10.0,10.0,64,0.00,CLR,,0.00,0.0,WeatherDisplay:10.37,2013-05-01 04:56:00,